Regional Weather Roundup
Issued by NWS

Home | Current Version | Previous Version | Graphics & Text | Print | Product List | Glossary On
Versions: 1 2 3 4 5 6 7 8 9 10 11 12 13 14 15 16 17 18 19 20 21 22 23 24 25 26 27 28 29 30 31 32 33 34 35 36 37 38 39 40 41 42 43 44 45 46 47 48 49 50
000
ASUS43 KBIS 081410
RWRND

NORTH DAKOTA REGIONAL WEATHER ROUNDUP
NATIONAL WEATHER SERVICE BISMARCK ND
800 AM CST THU DEC 08 2016

NOTE: "FAIR" INDICATES FEW OR NO CLOUDS BELOW 12,000 FEET WITH NO
SIGNIFICANT WEATHER AND/OR OBSTRUCTIONS TO VISIBILITY.


NDZ001>003-009>011-017-081500-
NORTHWEST NORTH DAKOTA

CITY           SKY/WX    TMP DP  RH WIND       PRES   REMARKS
WILLISTON      MOCLDY    -2  -8  76 NW8       30.65R WCI -17
MINOT          CLEAR     -1  -6  79 W20       30.59R WCI -23
MINOT AFB      CLEAR     -4  -9  77 NW18      30.58R WCI -26
$$

NDZ018>021-031>035-040>046-081500-
SOUTHWEST NORTH DAKOTA

CITY           SKY/WX    TMP DP  RH WIND       PRES   REMARKS
BISMARCK       CLOUDY     2  -3  80 W16       30.61R WCI -18
DICKINSON      CLOUDY    -8 -13  78 NW18      30.54S WCI -32
GARRISON         N/A     -2  -7  79 NW15      30.58R WCI -22
HETTINGER ARPT CLEAR     -7 -12  79 NW14      30.57R WCI -28
$$

NDZ004>008-012>016-024-026-027-054-081500-
NORTHEAST NORTH DAKOTA

CITY           SKY/WX    TMP DP  RH WIND       PRES   REMARKS
GRAND FORKS    LGT SNOW  15  10  80 NW24G30   30.44R WCI  -4
DEVILS LAKE    FLURRIES   5   1  83 NW21      30.49R WCI -16
$$

NDZ022-023-025-028>030-036>039-047>053-081500-
SOUTHEAST NORTH DAKOTA

CITY           SKY/WX    TMP DP  RH WIND       PRES   REMARKS
FARGO          CLOUDY    16  10  77 NW22      30.44R WCI  -2
JAMESTOWN      CLOUDY     5   1  83 NW23      30.49S WCI -17
$$





USA.gov is the U.S. government's official web portal to all federal, state and local government web resources and services.